Tracking 29892 objects as of 21-Nov-2024
HD Live streaming from Space Station
objects crossing your sky now

OPS 6679 (VELA 8)

Track OPS 6679 (VELA 8) now!
OPS 6679 (VELA 8) is classified as:


NORAD ID: 2766
Int'l Code: 1967-040B
Perigee: 57,412.8 km
Apogee: 166,914.6 km
Inclination: 33.2 °
Period: 6,769.0 minutes
Semi major axis: 118534 km
RCS: Unknown
Launch date: April 28, 1967
Source: United States (US)
Launch site: AIR FORCE EASTERN TEST RANGE (AFETR)
Your satellite tracking list
Your tracking list is empty




NASA's NSSDC Master Catalog

Two Line Element Set (TLE):
1 02766U 67040B   24319.58023006 -.00001062  00000-0  00000-0 0  9991
2 02766  33.2330  17.1041 4618975  95.9604 358.2304  0.21273296  4263
Source of the keplerian elements: AFSPC